Keila

Estonia     59˚18′42″N   24˚23′35″E
temp.,
°C
wind,
m/s
gust,
m/s
humid.,
%
clouds,
%
prec.,
mm/h
press.,
hPa
HPBL,
m
27 november, fri
fri2723:00+3˚nw27880 0.0 1007250
02:00+2˚nw39800 0.0 1008499
05:00+1˚n478179 0.1 1009829
08:00+1˚n478090 0.1 1010885
11:00+1˚n4986100 0.2 1011798
14:00+1˚n4983100 0.5 1013899
17:00+1˚nne4996100 0.4 1014551
20:00+2˚ne31083100 1.2 1017886
28 november, sat
sat2823:00+3˚ne3108763 0.1 1019785
02:00+3˚nne388476 0.2 1021699
05:00+2˚ne398497 0.1 1022677
08:00+2˚nne288589 0.1 1024600
11:00+3˚ne388398 0.1 1025847
14:00+3˚ne388597 0.1 1026760
17:00+2˚ene2885100 0.0 1026694
20:00+2˚ene288796 0.1 1027701
29 november, sun
sun2923:00+1˚ene278998 0.0 1027581
02:00ene259692 0.1 1028165
05:00−1˚ene279277 0.0 1027272
08:00−1˚ene268979 0.0 1028296
11:00−1˚e268521 0.0 1028402
14:00−1˚ese358325 0.0 1027506
17:00−1˚ese358485 0.0 1027551
20:00e247992 0.0 1027617
30 november, mon
mon3023:00−1˚ne2480100 0.0 1025420
02:00−1˚nne128499 0.0 1024157
05:00−1˚nne129396 0.0 102170
08:00ene139996 0.3 1021139
11:00+1˚sse0198100 0.1 101967
14:00+1˚ssw1197100 0.1 101887
17:00sw1398100 0.1 1016160
20:00+1˚ssw3698100 0.6 1016310
1 december, tue
tue123:00+1˚sw4897100 1.1 1016455
02:00s3995100 1.6 1016330
05:00+1˚s499799 0.1 1017526
08:00+2˚s4997100 0.4 1019507
11:00+2˚s51097100 0.5 1021587
14:00+2˚s51092100 0.6 1022589
17:00+2˚s51095100 0.1 1025557
20:00+1˚s3889100 0.1 1027531